TimeAKDT,TemperatureF,Dew PointF,Humidity,Sea Level PressureIn,VisibilityMPH,Wind Direction,Wind SpeedMPH,Gust SpeedMPH,PrecipitationIn,Events,Conditions,WindDirDegrees,DateUTC
12:52 AM,50.0,46.4,87,29.88,10.0,ESE,18.4,-,N/A,,Overcast,120,2012-10-09 08:52:00
12:56 AM,50.0,46.9,89,29.89,10.0,ESE,15.0,-,N/A,,Overcast,110,2012-10-09 08:56:00
1:56 AM,50.0,46.9,89,29.88,10.0,SE,15.0,23.0,N/A,,Overcast,140,2012-10-09 09:56:00
2:56 AM,50.0,46.9,89,29.88,10.0,SE,16.1,21.9,N/A,,Overcast,140,2012-10-09 10:56:00
3:56 AM,50.0,46.9,89,29.88,10.0,ESE,19.6,27.6,N/A,,Overcast,120,2012-10-09 11:56:00
4:56 AM,50.0,46.9,89,29.87,10.0,SE,16.1,21.9,N/A,,Overcast,140,2012-10-09 12:56:00
5:56 AM,50.0,46.9,89,29.86,10.0,SE,16.1,21.9,N/A,,Overcast,130,2012-10-09 13:56:00
6:56 AM,48.9,46.0,90,29.85,10.0,East,16.1,25.3,N/A,,Overcast,100,2012-10-09 14:56:00
7:56 AM,48.9,45.0,86,29.86,6.0,SE,15.0,23.0,0.00,Rain,Light Rain,140,2012-10-09 15:56:00
8:56 AM,48.9,45.0,86,29.86,4.0,SE,5.8,-,0.00,,Overcast,130,2012-10-09 16:56:00
9:56 AM,48.0,44.1,86,29.87,3.0,ESE,11.5,-,N/A,,Overcast,110,2012-10-09 17:56:00
10:41 AM,46.4,42.8,87,29.86,7.0,ESE,17.3,23.0,0.00,Rain,Light Rain,120,2012-10-09 18:41:00
10:56 AM,46.9,43.0,86,29.88,7.0,SE,18.4,-,0.00,Rain,Light Rain,130,2012-10-09 18:56:00
11:56 AM,46.9,43.0,86,29.87,8.0,ESE,16.1,-,0.00,Rain,Light Rain,120,2012-10-09 19:56:00
12:56 PM,46.9,43.0,86,29.85,6.0,East,13.8,21.9,0.00,Rain,Light Rain,90,2012-10-09 20:56:00
1:56 PM,46.9,43.0,86,29.84,8.0,Calm,Calm,-,0.00,Rain,Light Rain,0,2012-10-09 21:56:00
2:50 PM,46.4,42.8,87,29.80,5.0,East,9.2,-,0.00,Rain,Light Rain,80,2012-10-09 22:50:00
2:56 PM,46.9,43.0,86,29.82,4.0,East,10.4,-,0.00,Rain,Light Rain,90,2012-10-09 22:56:00
3:56 PM,46.9,43.0,86,29.81,3.0,East,17.3,21.9,0.00,Rain,Light Rain,80,2012-10-09 23:56:00
4:35 PM,46.4,42.8,87,29.78,5.0,East,15.0,-,0.00,Rain,Light Rain,100,2012-10-10 00:35:00
4:51 PM,48.2,42.8,82,29.77,4.0,ESE,20.7,26.5,0.00,Rain,Light Rain,110,2012-10-10 00:51:00
4:56 PM,48.0,43.0,83,29.79,4.0,East,19.6,27.6,0.00,Rain,Light Rain,80,2012-10-10 00:56:00
5:09 PM,48.2,42.8,82,29.77,4.0,East,16.1,28.8,0.00,Rain,Light Rain,100,2012-10-10 01:09:00
5:35 PM,46.4,44.6,93,29.76,3.0,East,18.4,26.5,0.00,Rain,Light Rain,100,2012-10-10 01:35:00
5:51 PM,46.4,44.6,93,29.76,3.0,East,13.8,20.7,0.00,Rain,Light Rain,90,2012-10-10 01:51:00
5:56 PM,48.0,43.0,83,29.77,3.0,East,12.7,20.7,0.00,Rain,Light Rain,100,2012-10-10 01:56:00
6:56 PM,46.9,44.1,90,29.76,4.0,East,15.0,-,0.01,Rain,Light Rain,100,2012-10-10 02:56:00
7:19 PM,46.4,44.6,93,29.74,6.0,East,18.4,-,0.00,Rain,Light Rain,90,2012-10-10 03:19:00
7:56 PM,48.0,45.0,89,29.75,9.0,East,18.4,32.2,0.00,,Overcast,100,2012-10-10 03:56:00
8:27 PM,48.2,44.6,87,29.73,10.0,East,17.3,29.9,0.00,Rain,Light Rain,80,2012-10-10 04:27:00
8:56 PM,48.9,44.1,83,29.74,7.0,East,18.4,26.5,0.00,Rain,Light Rain,80,2012-10-10 04:56:00
9:56 PM,48.9,44.1,83,29.75,8.0,East,15.0,26.5,0.00,Rain,Light Rain,90,2012-10-10 05:56:00
10:56 PM,50.0,44.1,80,29.75,10.0,ESE,12.7,27.6,0.01,Rain,Light Rain,110,2012-10-10 06:56:00
11:56 PM,48.9,45.0,86,29.74,8.0,ESE,18.4,27.6,0.00,,Overcast,120,2012-10-10 07:56:00